OCN4TC EDDF-LGKO

Flight info

Callsign OCN4TC
Flight time 2h 39m
Altitude 37000
Route CINDY8S CINDY Z74 LAMPU DCT NOMBO Y161 MAH DCT VAVOR DCT RADIZ DCT KUSIB DCT MEDUX UM867 KOGAT DCT ERANA DCT TSL DCT MES UN139 LURUS L995 KOPAR
Aircraft A320/M-SDE3FGHIRWY/LB1

Departure

Time 2026-05-06 19:10
Airport Frankfurt Main Airport (EDDF)

Arrival

Time 2026-05-06 21:49
Airport Kos International Airport "Ippokratis" (LGKO)
Time Latitude Longitude Altitude Speed Heading
2026-05-06 18:37 50.04390 8.56168 356 ft 0 kts 155°
2026-05-06 18:57 50.04413 8.56151 362 ft 4 kts 153°
2026-05-06 18:57 50.04436 8.56136 357 ft 4 kts 181°
2026-05-06 18:57 50.04454 8.56148 359 ft 4 kts 221°
2026-05-06 18:58 50.04463 8.56163 364 ft 2 kts 250°
2026-05-06 18:58 50.04455 8.56126 362 ft 4 kts 249°
2026-05-06 18:58 50.04453 8.56118 361 ft 0 kts 249°
2026-05-06 19:02 50.04450 8.56105 361 ft 5 kts 249°
2026-05-06 19:02 50.04424 8.56023 356 ft 10 kts 247°
2026-05-06 19:02 50.04386 8.55927 358 ft 11 kts 204°
2026-05-06 19:03 50.04314 8.55945 356 ft 11 kts 156°
2026-05-06 19:03 50.04249 8.55958 356 ft 9 kts 216°
2026-05-06 19:03 50.04222 8.55869 361 ft 10 kts 250°
2026-05-06 19:03 50.04194 8.55752 359 ft 13 kts 250°
2026-05-06 19:04 50.04160 8.55610 356 ft 16 kts 250°
2026-05-06 19:04 50.04120 8.55442 356 ft 17 kts 249°
2026-05-06 19:04 50.04076 8.55262 360 ft 18 kts 249°
2026-05-06 19:04 50.04032 8.55071 359 ft 20 kts 250°
2026-05-06 19:05 50.03981 8.54864 354 ft 22 kts 249°
2026-05-06 19:05 50.03926 8.54629 351 ft 24 kts 250°
2026-05-06 19:05 50.03875 8.54419 353 ft 12 kts 249°
2026-05-06 19:05 50.03829 8.54292 351 ft 15 kts 234°
2026-05-06 19:06 50.03780 8.54143 353 ft 16 kts 250°
2026-05-06 19:06 50.03738 8.53966 344 ft 19 kts 250°
2026-05-06 19:06 50.03690 8.53767 346 ft 21 kts 249°
2026-05-06 19:06 50.03636 8.53548 340 ft 23 kts 249°
2026-05-06 19:07 50.03577 8.53310 335 ft 24 kts 249°
2026-05-06 19:07 50.03516 8.53055 335 ft 26 kts 250°
2026-05-06 19:07 50.03449 8.52793 336 ft 23 kts 248°
2026-05-06 19:07 50.03418 8.52665 332 ft 11 kts 250°
2026-05-06 19:08 50.03367 8.52593 335 ft 11 kts 182°
2026-05-06 19:08 50.03350 8.52594 335 ft 0 kts 178°
2026-05-06 19:09 50.03343 8.52594 332 ft 7 kts 178°
2026-05-06 19:09 50.03026 8.52593 335 ft 83 kts 181°
2026-05-06 19:09 50.02231 8.52602 335 ft 142 kts 180°
2026-05-06 19:09 50.01165 8.52591 757 ft 154 kts 184°
2026-05-06 19:10 50.00092 8.52573 1441 ft 156 kts 181°
2026-05-06 19:10 49.98943 8.52590 1866 ft 175 kts 182°
2026-05-06 19:10 49.97676 8.52636 2297 ft 191 kts 170°
2026-05-06 19:10 49.96446 8.53608 2691 ft 210 kts 140°
2026-05-06 19:11 49.95481 8.55436 3116 ft 229 kts 120°
2026-05-06 19:11 49.94757 8.57733 3678 ft 242 kts 118°
2026-05-06 19:11 49.94132 8.60181 3825 ft 246 kts 103°
2026-05-06 19:11 49.93956 8.62980 3843 ft 270 kts 94°
2026-05-06 19:12 49.93824 8.65919 3844 ft 274 kts 99°
2026-05-06 19:12 49.93276 8.68691 3863 ft 274 kts 118°
2026-05-06 19:12 49.92140 8.71089 4567 ft 276 kts 139°
2026-05-06 19:12 49.90643 8.72930 5665 ft 274 kts 147°
2026-05-06 19:13 49.89124 8.74730 6559 ft 280 kts 140°
2026-05-06 19:13 49.87853 8.77075 7441 ft 287 kts 124°
2026-05-06 19:13 49.86861 8.79792 8318 ft 291 kts 121°
2026-05-06 19:13 49.85877 8.82544 9217 ft 294 kts 121°
2026-05-06 19:14 49.84872 8.85335 10021 ft 300 kts 121°
2026-05-06 19:14 49.83809 8.88262 10346 ft 323 kts 121°
2026-05-06 19:14 49.82662 8.91404 10633 ft 345 kts 121°
2026-05-06 19:14 49.81485 8.94636 11235 ft 353 kts 121°
2026-05-06 19:15 49.80271 8.97971 12007 ft 356 kts 121°
2026-05-06 19:15 49.79053 9.01322 12789 ft 359 kts 121°
2026-05-06 19:15 49.77826 9.04700 13568 ft 362 kts 121°
2026-05-06 19:15 49.76621 9.08142 14243 ft 365 kts 116°
2026-05-06 19:16 49.75769 9.11858 14893 ft 370 kts 105°
2026-05-06 19:16 49.75101 9.15723 15540 ft 373 kts 110°
2026-05-06 19:16 49.74021 9.19369 16191 ft 374 kts 122°
2026-05-06 19:16 49.72507 9.22628 16852 ft 375 kts 132°
2026-05-06 19:17 49.70800 9.25620 17500 ft 377 kts 133°
2026-05-06 19:17 49.69066 9.28672 18139 ft 380 kts 133°
2026-05-06 19:17 49.67320 9.31755 18688 ft 383 kts 133°
2026-05-06 19:17 49.65561 9.34863 19236 ft 385 kts 133°
2026-05-06 19:18 49.63791 9.37987 19783 ft 388 kts 133°
2026-05-06 19:18 49.61908 9.40967 20300 ft 389 kts 141°
2026-05-06 19:18 49.59714 9.43410 20836 ft 390 kts 150°
2026-05-06 19:18 49.57376 9.45533 21372 ft 391 kts 150°
2026-05-06 19:19 49.55063 9.47635 21946 ft 392 kts 150°
2026-05-06 19:19 49.52710 9.49785 22512 ft 393 kts 150°
2026-05-06 19:19 49.50357 9.51939 23049 ft 395 kts 150°
2026-05-06 19:19 49.47992 9.54097 23523 ft 397 kts 150°
2026-05-06 19:20 49.45609 9.56262 23944 ft 399 kts 150°
2026-05-06 19:20 49.43217 9.58438 24364 ft 400 kts 150°
2026-05-06 19:20 49.40823 9.60614 24778 ft 402 kts 150°
2026-05-06 19:20 49.38409 9.62805 25174 ft 404 kts 150°
2026-05-06 19:21 49.36018 9.64977 25568 ft 405 kts 150°
2026-05-06 19:21 49.33696 9.67437 25954 ft 408 kts 142°
2026-05-06 19:21 49.31624 9.70442 26353 ft 411 kts 137°
2026-05-06 19:21 49.29604 9.73545 26737 ft 413 kts 137°
2026-05-06 19:22 49.27564 9.76661 27125 ft 415 kts 137°
2026-05-06 19:22 49.25500 9.79807 27495 ft 417 kts 137°
2026-05-06 19:22 49.23458 9.82921 27833 ft 419 kts 138°
2026-05-06 19:22 49.21419 9.86022 28216 ft 421 kts 139°
2026-05-06 19:23 49.19305 9.89230 28570 ft 423 kts 139°
2026-05-06 19:23 49.17208 9.92408 28904 ft 425 kts 139°
2026-05-06 19:23 49.15131 9.95551 29223 ft 427 kts 139°
2026-05-06 19:23 49.13017 9.98748 29534 ft 429 kts 139°
2026-05-06 19:24 49.10888 10.01969 29846 ft 431 kts 139°
2026-05-06 19:24 49.08752 10.05192 30125 ft 433 kts 139°
2026-05-06 19:24 49.06598 10.08436 30352 ft 436 kts 140°
2026-05-06 19:24 49.04421 10.11654 30662 ft 436 kts 140°
2026-05-06 19:25 49.02210 10.14822 30992 ft 435 kts 141°
2026-05-06 19:25 48.99981 10.17949 31305 ft 435 kts 142°
2026-05-06 19:25 48.97748 10.21052 31620 ft 435 kts 142°
2026-05-06 19:25 48.95538 10.24122 31952 ft 436 kts 142°
2026-05-06 19:26 48.93304 10.27242 32302 ft 435 kts 142°
2026-05-06 19:26 48.91084 10.30363 32643 ft 435 kts 141°
2026-05-06 19:26 48.88870 10.33491 32982 ft 435 kts 141°
2026-05-06 19:26 48.86655 10.36625 33327 ft 435 kts 141°
2026-05-06 19:27 48.84439 10.39749 33693 ft 434 kts 141°
2026-05-06 19:27 48.82237 10.42876 33995 ft 435 kts 140°
2026-05-06 19:27 48.80090 10.46123 34239 ft 436 kts 139°
2026-05-06 19:27 48.78000 10.49464 34489 ft 438 kts 137°
2026-05-06 19:28 48.75961 10.52819 34721 ft 438 kts 137°
2026-05-06 19:28 48.73904 10.56223 34980 ft 439 kts 137°
2026-05-06 19:28 48.71833 10.59625 35236 ft 439 kts 137°
2026-05-06 19:28 48.69747 10.63005 35483 ft 439 kts 138°
2026-05-06 19:29 48.67650 10.66354 35716 ft 439 kts 138°
2026-05-06 19:29 48.65536 10.69703 35958 ft 439 kts 139°
2026-05-06 19:29 48.63424 10.73034 36161 ft 439 kts 139°
2026-05-06 19:29 48.61309 10.76367 36385 ft 440 kts 139°
2026-05-06 19:30 48.59222 10.79661 36594 ft 440 kts 139°
2026-05-06 19:30 48.57139 10.82962 36794 ft 440 kts 138°
2026-05-06 19:30 48.55034 10.86323 36863 ft 442 kts 138°
2026-05-06 19:31 48.50828 10.93069 36896 ft 440 kts 138°
2026-05-06 19:31 48.44509 11.03066 36894 ft 439 kts 139°
2026-05-06 19:32 48.40283 11.09609 36892 ft 439 kts 139°
2026-05-06 19:32 48.36035 11.16194 36894 ft 439 kts 139°
2026-05-06 19:33 48.31785 11.22778 36862 ft 439 kts 139°
2026-05-06 19:33 48.27532 11.29369 36900 ft 440 kts 137°
2026-05-06 19:34 48.24075 11.37045 36912 ft 449 kts 125°
2026-05-06 19:34 48.20957 11.45166 36915 ft 449 kts 125°
2026-05-06 19:35 48.17853 11.53211 36917 ft 449 kts 126°
2026-05-06 19:35 48.14713 11.61281 36886 ft 449 kts 126°
2026-05-06 19:36 48.11559 11.69348 36890 ft 449 kts 126°
2026-05-06 19:36 48.08407 11.77395 36895 ft 449 kts 126°
2026-05-06 19:37 48.05257 11.85446 36900 ft 449 kts 126°
2026-05-06 19:37 48.02632 11.92141 36883 ft 449 kts 126°
2026-05-06 19:38 47.98953 12.01471 36855 ft 449 kts 126°
2026-05-06 19:38 47.95777 12.09497 36870 ft 449 kts 126°
2026-05-06 19:39 47.92136 12.16937 36888 ft 438 kts 141°
2026-05-06 19:39 47.87562 12.22820 36887 ft 435 kts 145°
2026-05-06 19:40 47.82922 12.28611 36889 ft 435 kts 145°
2026-05-06 19:40 47.78317 12.34355 36894 ft 435 kts 145°
2026-05-06 19:41 47.73677 12.40143 36874 ft 436 kts 145°
2026-05-06 19:41 47.69036 12.45923 36872 ft 436 kts 145°
2026-05-06 19:42 47.64371 12.51694 36868 ft 437 kts 145°
2026-05-06 19:42 47.60092 12.58171 36865 ft 443 kts 136°
2026-05-06 19:43 47.56056 12.65074 36836 ft 443 kts 136°
2026-05-06 19:43 47.52010 12.71957 36842 ft 444 kts 137°
2026-05-06 19:44 47.47974 12.78787 36839 ft 444 kts 137°
2026-05-06 19:44 47.43890 12.85671 36847 ft 446 kts 137°
2026-05-06 19:45 47.39802 12.92578 36856 ft 446 kts 137°
2026-05-06 19:45 47.35736 12.99416 36840 ft 446 kts 137°
2026-05-06 19:46 47.31612 13.06327 36852 ft 446 kts 137°
2026-05-06 19:46 47.27546 13.13140 36869 ft 446 kts 137°
2026-05-06 19:47 47.23441 13.19993 36873 ft 446 kts 137°
2026-05-06 19:47 47.19339 13.26829 36895 ft 446 kts 137°
2026-05-06 19:48 47.15234 13.33647 36872 ft 445 kts 138°
2026-05-06 19:48 47.11122 13.40441 36886 ft 445 kts 138°
2026-05-06 19:49 47.07043 13.47177 36905 ft 445 kts 138°
2026-05-06 19:49 47.02930 13.53972 36896 ft 445 kts 138°
2026-05-06 19:50 46.98804 13.60764 36898 ft 446 kts 137°
2026-05-06 19:50 46.94663 13.67545 36874 ft 447 kts 137°
2026-05-06 19:51 46.90507 13.74330 36889 ft 448 kts 137°
2026-05-06 19:51 46.86372 13.81079 36897 ft 449 kts 137°
2026-05-06 19:52 46.82200 13.87871 36895 ft 449 kts 137°
2026-05-06 19:52 46.78015 13.94664 36904 ft 450 kts 138°
2026-05-06 19:53 46.73859 14.01405 36885 ft 450 kts 137°
2026-05-06 19:53 46.69674 14.08176 36893 ft 450 kts 137°
2026-05-06 19:54 46.65506 14.14890 36900 ft 450 kts 138°
2026-05-06 19:54 46.61298 14.21645 36908 ft 450 kts 138°
2026-05-06 19:55 46.57090 14.28388 36882 ft 450 kts 138°
2026-05-06 19:55 46.52905 14.35074 36899 ft 450 kts 138°
2026-05-06 19:56 46.48687 14.41806 36903 ft 450 kts 138°
2026-05-06 19:56 46.44471 14.48519 36897 ft 450 kts 137°
2026-05-06 19:57 46.40237 14.55226 36918 ft 451 kts 138°
2026-05-06 19:57 46.36030 14.61880 36908 ft 451 kts 138°
2026-05-06 19:58 46.31795 14.68589 36916 ft 451 kts 138°
2026-05-06 19:58 46.27563 14.75272 36918 ft 451 kts 138°
2026-05-06 19:59 46.23308 14.81960 36925 ft 451 kts 138°
2026-05-06 19:59 46.19078 14.88584 36905 ft 452 kts 138°
2026-05-06 20:00 46.14811 14.95251 36899 ft 453 kts 138°
2026-05-06 20:00 46.10534 15.01919 36899 ft 454 kts 138°
2026-05-06 20:01 46.06247 15.08591 36902 ft 454 kts 138°
2026-05-06 20:01 46.01978 15.15219 36909 ft 454 kts 138°
2026-05-06 20:02 45.97677 15.21878 36891 ft 454 kts 138°
2026-05-06 20:02 45.93367 15.28534 36895 ft 455 kts 138°
2026-05-06 20:03 45.89050 15.35197 36899 ft 456 kts 138°
2026-05-06 20:03 45.84749 15.41813 36903 ft 456 kts 139°
2026-05-06 20:04 45.80413 15.48467 36909 ft 457 kts 139°
2026-05-06 20:04 45.76070 15.55109 36911 ft 457 kts 139°
2026-05-06 20:05 45.71724 15.61745 36913 ft 457 kts 139°
2026-05-06 20:05 45.67373 15.68369 36916 ft 457 kts 139°
2026-05-06 20:06 45.63048 15.74933 36920 ft 457 kts 139°
2026-05-06 20:06 45.58690 15.81539 36899 ft 457 kts 138°
2026-05-06 20:07 45.54329 15.88136 36903 ft 457 kts 138°
2026-05-06 20:07 45.49946 15.94733 36907 ft 458 kts 138°
2026-05-06 20:08 45.45595 16.01278 36914 ft 458 kts 138°
2026-05-06 20:08 45.41206 16.07870 36916 ft 458 kts 139°
2026-05-06 20:09 45.36813 16.14457 36896 ft 459 kts 138°
2026-05-06 20:09 45.32413 16.21026 36909 ft 459 kts 139°
2026-05-06 20:10 45.28031 16.27549 36916 ft 459 kts 139°
2026-05-06 20:10 45.23616 16.34108 36920 ft 459 kts 139°
2026-05-06 20:11 45.19200 16.40663 36909 ft 460 kts 138°
2026-05-06 20:11 45.14775 16.47203 36914 ft 460 kts 139°
2026-05-06 20:12 45.10420 16.53869 36926 ft 462 kts 137°
2026-05-06 20:12 45.06186 16.60635 36932 ft 463 kts 136°
2026-05-06 20:13 45.01913 16.67438 36912 ft 462 kts 137°
2026-05-06 20:13 44.97606 16.74182 36915 ft 463 kts 137°
2026-05-06 20:14 44.93271 16.80919 36930 ft 464 kts 137°
2026-05-06 20:14 44.88961 16.87619 36923 ft 464 kts 137°
2026-05-06 20:15 44.84619 16.94364 36925 ft 465 kts 137°
2026-05-06 20:15 44.80263 17.01109 36921 ft 466 kts 137°
2026-05-06 20:16 44.75887 17.07864 36924 ft 467 kts 137°
2026-05-06 20:16 44.71502 17.14618 36929 ft 468 kts 137°
2026-05-06 20:17 44.67140 17.21330 36942 ft 468 kts 137°
2026-05-06 20:17 44.62738 17.28078 36930 ft 469 kts 137°
2026-05-06 20:18 44.58323 17.34831 36946 ft 470 kts 137°
2026-05-06 20:18 44.53900 17.41583 36951 ft 470 kts 137°
2026-05-06 20:19 44.49502 17.48288 36968 ft 471 kts 137°
2026-05-06 20:19 44.45068 17.55033 36955 ft 471 kts 137°
2026-05-06 20:20 44.40617 17.61778 36959 ft 472 kts 137°
2026-05-06 20:20 44.36161 17.68511 36972 ft 472 kts 138°
2026-05-06 20:21 44.31729 17.75189 36977 ft 472 kts 138°
2026-05-06 20:21 44.27258 17.81912 36979 ft 472 kts 137°
2026-05-06 20:22 44.22787 17.88623 36977 ft 472 kts 137°
2026-05-06 20:22 44.18305 17.95330 36989 ft 473 kts 137°
2026-05-06 20:23 44.13818 18.02031 36991 ft 473 kts 138°
2026-05-06 20:23 44.09355 18.08685 36983 ft 473 kts 138°
2026-05-06 20:24 44.04858 18.15383 37002 ft 474 kts 138°
2026-05-06 20:24 44.00344 18.22069 37020 ft 475 kts 138°
2026-05-06 20:25 43.95820 18.28746 37036 ft 475 kts 138°
2026-05-06 20:25 43.91327 18.35385 37042 ft 475 kts 138°
2026-05-06 20:26 43.86799 18.42059 37033 ft 475 kts 139°
2026-05-06 20:26 43.82264 18.48711 37034 ft 475 kts 139°
2026-05-06 20:27 43.77721 18.55363 37038 ft 475 kts 139°
2026-05-06 20:27 43.73216 18.61968 37022 ft 475 kts 138°
2026-05-06 20:28 43.68668 18.68612 37023 ft 476 kts 138°
2026-05-06 20:28 43.64106 18.75247 37022 ft 477 kts 139°
2026-05-06 20:29 43.60303 18.80760 37019 ft 477 kts 139°
2026-05-06 20:29 43.54983 18.88462 37004 ft 477 kts 138°
2026-05-06 20:30 43.48099 18.98393 37025 ft 478 kts 139°
2026-05-06 20:31 43.44285 19.03883 37036 ft 478 kts 138°
2026-05-06 20:31 43.39695 19.10489 37038 ft 477 kts 139°
2026-05-06 20:32 43.34351 19.18146 37025 ft 477 kts 138°
2026-05-06 20:32 43.30493 19.23657 37034 ft 478 kts 138°
2026-05-06 20:33 43.25920 19.30190 37036 ft 478 kts 138°
2026-05-06 20:33 43.21309 19.36751 37043 ft 478 kts 138°
2026-05-06 20:34 43.16692 19.43309 37049 ft 478 kts 138°
2026-05-06 20:34 43.12073 19.49860 37039 ft 478 kts 138°
2026-05-06 20:35 43.07444 19.56409 37041 ft 479 kts 138°
2026-05-06 20:35 43.02833 19.62911 37052 ft 480 kts 138°
2026-05-06 20:36 42.98180 19.69449 37054 ft 480 kts 138°
2026-05-06 20:36 42.93524 19.75984 37061 ft 480 kts 138°
2026-05-06 20:37 42.88864 19.82511 37052 ft 480 kts 138°
2026-05-06 20:37 42.84203 19.89027 37044 ft 480 kts 137°
2026-05-06 20:38 42.79595 19.95448 37050 ft 481 kts 137°
2026-05-06 20:38 42.74927 20.01965 37056 ft 482 kts 135°
2026-05-06 20:39 42.70642 20.09005 37048 ft 483 kts 132°
2026-05-06 20:39 42.66373 20.16070 37046 ft 484 kts 132°
2026-05-06 20:40 42.62119 20.23074 37057 ft 484 kts 132°
2026-05-06 20:40 42.57823 20.30112 37031 ft 483 kts 132°
2026-05-06 20:41 42.53535 20.37134 37038 ft 483 kts 132°
2026-05-06 20:41 42.49241 20.44150 37037 ft 484 kts 132°
2026-05-06 20:42 42.44965 20.51118 37023 ft 484 kts 131°
2026-05-06 20:42 42.40658 20.58127 37042 ft 484 kts 131°
2026-05-06 20:43 42.36347 20.65128 37045 ft 484 kts 131°
2026-05-06 20:43 42.32031 20.72109 37047 ft 484 kts 131°
2026-05-06 20:44 42.27742 20.79046 37054 ft 484 kts 131°
2026-05-06 20:44 42.23424 20.86026 37046 ft 485 kts 131°
2026-05-06 20:45 42.19082 20.92996 37035 ft 485 kts 131°
2026-05-06 20:45 42.14734 20.99966 37047 ft 486 kts 131°
2026-05-06 20:46 42.10274 21.06798 37027 ft 485 kts 138°
2026-05-06 20:46 42.05400 21.12981 37042 ft 485 kts 138°
2026-05-06 20:47 42.00491 21.19218 37023 ft 485 kts 137°
2026-05-06 20:47 41.95605 21.25420 37035 ft 485 kts 137°
2026-05-06 20:48 41.90692 21.31633 37028 ft 485 kts 137°
2026-05-06 20:48 41.85773 21.37833 37032 ft 485 kts 137°
2026-05-06 20:49 41.80881 21.43980 37022 ft 485 kts 138°
2026-05-06 20:49 41.75953 21.50161 37022 ft 485 kts 138°
2026-05-06 20:50 41.71023 21.56338 37022 ft 485 kts 137°
2026-05-06 20:50 41.66091 21.62506 37028 ft 485 kts 138°
2026-05-06 20:51 41.61189 21.68618 37032 ft 485 kts 138°
2026-05-06 20:51 41.56254 21.74759 37045 ft 485 kts 138°
2026-05-06 20:52 41.51313 21.80884 37043 ft 485 kts 138°
2026-05-06 20:52 41.46378 21.86989 37043 ft 484 kts 138°
2026-05-06 20:53 41.41481 21.93051 37053 ft 483 kts 138°
2026-05-06 20:53 41.36553 21.99143 37049 ft 483 kts 138°
2026-05-06 20:54 41.31620 22.05219 37056 ft 483 kts 138°
2026-05-06 20:54 41.26682 22.11281 37052 ft 483 kts 138°
2026-05-06 20:55 41.21770 22.17284 37066 ft 483 kts 138°
2026-05-06 20:55 41.16840 22.23318 37068 ft 482 kts 138°
2026-05-06 20:56 41.11770 22.29126 37072 ft 481 kts 142°
2026-05-06 20:56 41.06531 22.34627 37062 ft 480 kts 143°
2026-05-06 20:57 41.01285 22.40103 37065 ft 480 kts 142°
2026-05-06 20:57 40.96123 22.45612 37053 ft 480 kts 142°
2026-05-06 20:58 40.90949 22.51186 37065 ft 479 kts 142°
2026-05-06 20:58 40.85778 22.56720 37070 ft 478 kts 142°
2026-05-06 20:59 40.80629 22.62190 37067 ft 477 kts 142°
2026-05-06 20:59 40.75457 22.67686 37068 ft 477 kts 142°
2026-05-06 21:00 40.70291 22.73177 37058 ft 477 kts 142°
2026-05-06 21:00 40.65123 22.78649 37072 ft 477 kts 142°
2026-05-06 21:01 40.59984 22.84066 37089 ft 476 kts 142°
2026-05-06 21:01 40.54815 22.89496 37094 ft 475 kts 142°
2026-05-06 21:02 40.49653 22.94924 37093 ft 475 kts 142°
2026-05-06 21:02 40.44624 23.00543 37090 ft 476 kts 134°
2026-05-06 21:03 40.40113 23.06820 37079 ft 476 kts 134°
2026-05-06 21:03 40.35563 23.13120 37078 ft 476 kts 134°
2026-05-06 21:04 40.31000 23.19406 37065 ft 476 kts 134°
2026-05-06 21:04 40.26434 23.25694 37058 ft 477 kts 134°
2026-05-06 21:05 40.21856 23.31976 37053 ft 477 kts 134°
2026-05-06 21:05 40.17309 23.38214 37043 ft 477 kts 134°
2026-05-06 21:06 40.12728 23.44490 37055 ft 477 kts 134°
2026-05-06 21:06 40.08134 23.50756 37054 ft 478 kts 135°
2026-05-06 21:07 40.03532 23.57027 37056 ft 478 kts 134°
2026-05-06 21:07 39.98959 23.63254 37057 ft 479 kts 135°
2026-05-06 21:08 39.94345 23.69511 37060 ft 479 kts 135°
2026-05-06 21:08 39.89727 23.75755 37064 ft 479 kts 135°
2026-05-06 21:09 39.85130 23.81964 37061 ft 479 kts 135°
2026-05-06 21:09 39.80522 23.88192 37062 ft 479 kts 135°
2026-05-06 21:10 39.75885 23.94429 37066 ft 479 kts 135°
2026-05-06 21:10 39.71259 24.00644 37059 ft 479 kts 135°
2026-05-06 21:11 39.66625 24.06863 37068 ft 479 kts 135°
2026-05-06 21:11 39.62022 24.13018 37069 ft 479 kts 135°
2026-05-06 21:12 39.57380 24.19207 37061 ft 478 kts 135°
2026-05-06 21:12 39.52738 24.25386 37065 ft 478 kts 135°
2026-05-06 21:13 39.48099 24.31556 37064 ft 478 kts 135°
2026-05-06 21:13 39.43452 24.37722 37066 ft 478 kts 135°
2026-05-06 21:14 39.38838 24.43825 37077 ft 478 kts 135°
2026-05-06 21:14 39.34188 24.49965 37075 ft 478 kts 135°
2026-05-06 21:15 39.29534 24.56101 37068 ft 478 kts 135°
2026-05-06 21:15 39.24887 24.62214 37073 ft 478 kts 135°
2026-05-06 21:16 39.20258 24.68295 37076 ft 477 kts 135°
2026-05-06 21:16 39.15605 24.74400 37077 ft 477 kts 135°
2026-05-06 21:17 39.10950 24.80491 37080 ft 477 kts 135°
2026-05-06 21:17 39.06286 24.86584 37079 ft 477 kts 135°
2026-05-06 21:18 39.01648 24.92621 37080 ft 477 kts 135°
2026-05-06 21:18 38.96980 24.98688 37079 ft 477 kts 135°
2026-05-06 21:19 38.92311 25.04742 37084 ft 477 kts 135°
2026-05-06 21:19 38.87638 25.10784 37087 ft 477 kts 135°
2026-05-06 21:20 38.82996 25.16788 37091 ft 477 kts 135°
2026-05-06 21:20 38.78322 25.22825 37090 ft 477 kts 135°
2026-05-06 21:21 38.73639 25.28860 37087 ft 477 kts 135°
2026-05-06 21:21 38.68991 25.34836 37086 ft 477 kts 135°
2026-05-06 21:22 38.64301 25.40848 37089 ft 477 kts 135°
2026-05-06 21:22 38.59635 25.46814 37089 ft 478 kts 135°
2026-05-06 21:23 38.54930 25.52810 37091 ft 478 kts 135°
2026-05-06 21:23 38.50230 25.58808 37093 ft 478 kts 135°
2026-05-06 21:24 38.45528 25.64806 37107 ft 478 kts 135°
2026-05-06 21:24 38.40848 25.70755 37087 ft 478 kts 135°
2026-05-06 21:25 38.36129 25.76730 37096 ft 478 kts 135°
2026-05-06 21:25 38.31403 25.82703 37099 ft 479 kts 135°
2026-05-06 21:26 38.26557 25.88502 37100 ft 478 kts 144°
2026-05-06 21:26 38.20839 25.92564 37102 ft 473 kts 162°
2026-05-06 21:27 38.14649 25.95380 37108 ft 473 kts 162°
2026-05-06 21:27 38.08446 25.98192 37093 ft 474 kts 162°
2026-05-06 21:28 38.02236 26.01018 37092 ft 474 kts 162°
2026-05-06 21:28 37.96031 26.03849 37095 ft 474 kts 162°
2026-05-06 21:29 37.89859 26.06649 37098 ft 474 kts 162°
2026-05-06 21:29 37.83643 26.09458 36641 ft 473 kts 162°
2026-05-06 21:29 37.80542 26.10855 35839 ft 471 kts 162°
2026-05-06 21:30 37.77472 26.12238 34651 ft 475 kts 162°
2026-05-06 21:30 37.74315 26.13659 33661 ft 482 kts 162°
2026-05-06 21:30 37.71188 26.15068 32741 ft 484 kts 162°
2026-05-06 21:30 37.68003 26.16501 31817 ft 487 kts 162°
2026-05-06 21:31 37.64857 26.17916 31134 ft 485 kts 162°
2026-05-06 21:31 37.61695 26.19342 30511 ft 481 kts 162°
2026-05-06 21:31 37.58558 26.20755 29823 ft 478 kts 162°
2026-05-06 21:31 37.55430 26.22157 29020 ft 477 kts 162°
2026-05-06 21:32 37.52301 26.23555 28231 ft 475 kts 162°
2026-05-06 21:32 37.46102 26.26325 26758 ft 472 kts 162°
2026-05-06 21:32 37.43022 26.27697 26039 ft 470 kts 162°
2026-05-06 21:33 37.39976 26.29052 25337 ft 467 kts 162°
2026-05-06 21:33 37.36917 26.30415 24656 ft 465 kts 161°
2026-05-06 21:33 37.33874 26.31772 23982 ft 463 kts 161°
2026-05-06 21:33 37.30849 26.33124 23259 ft 461 kts 161°
2026-05-06 21:34 37.27833 26.34470 22484 ft 459 kts 161°
2026-05-06 21:34 37.24831 26.35808 21733 ft 457 kts 161°
2026-05-06 21:34 37.21844 26.37136 20999 ft 455 kts 161°
2026-05-06 21:34 37.18868 26.38456 20374 ft 451 kts 162°
2026-05-06 21:35 37.16004 26.39725 20217 ft 434 kts 162°
2026-05-06 21:35 37.13210 26.40961 20064 ft 419 kts 162°
2026-05-06 21:35 37.10488 26.42163 19689 ft 412 kts 162°
2026-05-06 21:35 37.07801 26.43349 19244 ft 407 kts 162°
2026-05-06 21:36 37.05140 26.44525 18792 ft 404 kts 162°
2026-05-06 21:36 37.02506 26.45689 18340 ft 400 kts 162°
2026-05-06 21:36 36.99892 26.46845 17835 ft 397 kts 162°
2026-05-06 21:36 36.97301 26.47988 17356 ft 393 kts 162°
2026-05-06 21:37 36.94734 26.49120 16863 ft 390 kts 162°
2026-05-06 21:37 36.92283 26.50425 16411 ft 388 kts 152°
2026-05-06 21:37 36.90081 26.52332 15960 ft 385 kts 139°
2026-05-06 21:37 36.88266 26.54759 15505 ft 381 kts 126°
2026-05-06 21:38 36.86913 26.57571 15046 ft 376 kts 113°
2026-05-06 21:38 36.85888 26.60560 14600 ft 373 kts 111°
2026-05-06 21:38 36.84871 26.63534 14088 ft 372 kts 111°
2026-05-06 21:38 36.83847 26.66504 13530 ft 372 kts 112°
2026-05-06 21:39 36.82587 26.69312 12960 ft 372 kts 124°
2026-05-06 21:39 36.80926 26.71778 12401 ft 371 kts 131°
2026-05-06 21:39 36.79214 26.74115 11859 ft 369 kts 131°
2026-05-06 21:39 36.77496 26.76472 11311 ft 366 kts 131°
2026-05-06 21:40 36.75796 26.78817 10835 ft 359 kts 130°
2026-05-06 21:40 36.74169 26.81058 10562 ft 335 kts 130°
2026-05-06 21:40 36.72660 26.83130 10362 ft 314 kts 130°
2026-05-06 21:40 36.71213 26.85120 9880 ft 308 kts 130°
2026-05-06 21:41 36.69812 26.87110 9566 ft 303 kts 125°
2026-05-06 21:41 36.68731 26.89330 9201 ft 298 kts 113°
2026-05-06 21:41 36.67828 26.91612 8819 ft 296 kts 114°
2026-05-06 21:41 36.66915 26.93904 8433 ft 294 kts 114°
2026-05-06 21:42 36.66005 26.96181 8055 ft 292 kts 114°
2026-05-06 21:42 36.65105 26.98437 7676 ft 290 kts 114°
2026-05-06 21:42 36.64208 27.00683 7296 ft 288 kts 114°
2026-05-06 21:42 36.63318 27.02909 6960 ft 284 kts 115°
2026-05-06 21:43 36.62453 27.05058 6848 ft 272 kts 115°
2026-05-06 21:43 36.61623 27.07113 6712 ft 260 kts 115°
2026-05-06 21:43 36.60837 27.09059 6607 ft 249 kts 115°
2026-05-06 21:43 36.60082 27.10948 6477 ft 239 kts 111°
2026-05-06 21:44 36.59679 27.12892 6295 ft 228 kts 90°
2026-05-06 21:44 36.59835 27.14821 6067 ft 222 kts 71°
2026-05-06 21:44 36.60374 27.16609 5812 ft 221 kts 66°
2026-05-06 21:44 36.60930 27.18389 5566 ft 220 kts 67°
2026-05-06 21:45 36.61579 27.20089 5354 ft 216 kts 49°
2026-05-06 21:45 36.62786 27.21082 5069 ft 211 kts 12°
2026-05-06 21:45 36.64229 27.20966 4611 ft 210 kts 335°
2026-05-06 21:45 36.65468 27.20057 4123 ft 210 kts 328°
2026-05-06 21:46 36.66697 27.19083 3672 ft 209 kts 328°
2026-05-06 21:46 36.67914 27.18120 3311 ft 204 kts 329°
2026-05-06 21:46 36.69087 27.17193 3176 ft 194 kts 328°
2026-05-06 21:46 36.70210 27.16309 2826 ft 190 kts 328°
2026-05-06 21:47 36.71333 27.15433 2324 ft 191 kts 328°
2026-05-06 21:47 36.72458 27.14558 1835 ft 190 kts 328°
2026-05-06 21:47 36.73560 27.13702 1547 ft 181 kts 328°
2026-05-06 21:47 36.74569 27.12916 1334 ft 165 kts 328°
2026-05-06 21:48 36.75509 27.12185 1109 ft 153 kts 328°
2026-05-06 21:48 36.76361 27.11526 930 ft 138 kts 328°
2026-05-06 21:48 36.77158 27.10910 747 ft 133 kts 328°
2026-05-06 21:48 36.77940 27.10305 562 ft 132 kts 328°
2026-05-06 21:49 36.78707 27.09712 408 ft 125 kts 327°
2026-05-06 21:49 36.79325 27.09215 411 ft 73 kts 327°
2026-05-06 21:49 36.79512 27.09069 412 ft 4 kts 328°
2026-05-06 21:49 36.79574 27.09020 414 ft 18 kts 328°
2026-05-06 21:50 36.79668 27.08976 418 ft 15 kts 360°
2026-05-06 21:50 36.79764 27.08983 418 ft 10 kts
2026-05-06 21:50 36.79833 27.08983 412 ft 10 kts 358°
2026-05-06 21:50 36.79879 27.08981 412 ft 3 kts 358°
2026-05-06 21:51 36.79881 27.08981 413 ft 0 kts 358°
2026-05-06 21:51 36.79884 27.08980 414 ft 3 kts 358°
2026-05-06 21:51 36.79919 27.08979 413 ft 5 kts 358°
2026-05-06 21:51 36.79941 27.08996 419 ft 3 kts 49°
2026-05-06 21:52 36.79952 27.09018 419 ft 3 kts 58°
2026-05-06 21:52 36.79964 27.09043 413 ft 3 kts 58°
2026-05-06 21:52 36.79973 27.09060 408 ft 0 kts 58°